Time,TemperatureF,DewpointF,PressureIn,WindDirection,WindDirectionDegrees,WindSpeedMPH,WindSpeedGustMPH,Humidity,HourlyPrecipIn,Conditions,Clouds,dailyrainin,SoftwareType,DateUTC
2013-01-03 00:02:00,10.2,7.4,30.21,WNW,300,0.0,-999.0,88,0.00,,,0.00,Wunderground v.1.15,2013-01-03 05:02:00,
2013-01-03 00:03:00,10.2,7.4,30.21,WNW,300,0.0,-999.0,88,0.00,,,0.00,Wunderground v.1.15,2013-01-03 05:03:00,
2013-01-03 00:07:00,10.1,7.5,30.21,WNW,300,0.0,-999.0,89,0.00,,,0.00,Wunderground v.1.15,2013-01-03 05:07:00,
2013-01-03 00:13:00,9.9,7.3,30.20,WNW,300,0.0,-999.0,89,0.00,,,0.00,Wunderground v.1.15,2013-01-03 05:13:00,
2013-01-03 00:19:00,9.7,7.1,30.20,WNW,300,0.0,-999.0,89,0.00,,,0.00,Wunderground v.1.15,2013-01-03 05:19:00,
2013-01-03 00:20:00,9.6,7.0,30.20,WNW,300,0.0,-999.0,89,0.00,,,0.00,Wunderground v.1.15,2013-01-03 05:20:00,
2013-01-03 00:26:00,9.5,6.7,30.20,WNW,300,0.0,-999.0,88,0.00,,,0.00,Wunderground v.1.15,2013-01-03 05:26:00,
2013-01-03 00:31:00,9.3,6.7,30.20,WNW,300,0.0,-999.0,89,0.00,,,0.00,Wunderground v.1.15,2013-01-03 05:31:00,
2013-01-03 00:37:00,9.0,6.2,30.20,WNW,300,0.0,-999.0,88,0.00,,,0.00,Wunderground v.1.15,2013-01-03 05:37:00,
2013-01-03 00:43:00,8.7,5.9,30.20,WNW,300,0.0,-999.0,88,0.00,,,0.00,Wunderground v.1.15,2013-01-03 05:43:00,
2013-01-03 00:49:00,8.6,5.8,30.20,WNW,300,0.0,-999.0,88,0.00,,,0.00,Wunderground v.1.15,2013-01-03 05:49:00,
2013-01-03 00:55:00,8.4,5.8,30.20,WNW,300,0.0,-999.0,89,0.00,,,0.00,Wunderground v.1.15,2013-01-03 05:55:00,
2013-01-03 01:01:00,8.3,5.7,30.20,WNW,300,0.0,-999.0,89,0.00,,,0.00,Wunderground v.1.15,2013-01-03 06:01:00,
2013-01-03 01:07:00,8.1,5.3,30.20,WNW,300,0.0,-999.0,88,0.00,,,0.00,Wunderground v.1.15,2013-01-03 06:07:00,
2013-01-03 01:13:00,8.0,5.2,30.20,WNW,300,0.0,-999.0,88,0.00,,,0.00,Wunderground v.1.15,2013-01-03 06:13:00,
2013-01-03 01:19:00,7.7,4.9,30.20,WNW,300,0.0,-999.0,88,0.00,,,0.00,Wunderground v.1.15,2013-01-03 06:19:00,
2013-01-03 01:25:00,7.4,4.6,30.20,WNW,300,0.0,-999.0,88,0.00,,,0.00,Wunderground v.1.15,2013-01-03 06:25:00,
2013-01-03 01:30:00,7.2,4.4,30.20,WNW,300,0.0,-999.0,88,0.00,,,0.00,Wunderground v.1.15,2013-01-03 06:30:00,
2013-01-03 01:36:00,6.9,4.1,30.20,WNW,300,0.0,-999.0,88,0.00,,,0.00,Wunderground v.1.15,2013-01-03 06:36:00,
2013-01-03 01:42:00,6.8,4.0,30.20,WNW,300,0.0,-999.0,88,0.00,,,0.00,Wunderground v.1.15,2013-01-03 06:42:00,
2013-01-03 01:48:00,6.6,3.8,30.20,WNW,300,0.0,-999.0,88,0.00,,,0.00,Wunderground v.1.15,2013-01-03 06:48:00,
2013-01-03 01:54:00,6.6,3.8,30.20,WNW,300,0.0,-999.0,88,0.00,,,0.00,Wunderground v.1.15,2013-01-03 06:54:00,
2013-01-03 02:00:00,6.7,4.1,30.21,WNW,300,0.0,-999.0,89,0.00,,,0.00,Wunderground v.1.15,2013-01-03 07:00:00,
2013-01-03 02:06:00,6.7,4.1,30.21,WNW,300,0.0,-999.0,89,0.00,,,0.00,Wunderground v.1.15,2013-01-03 07:06:00,
2013-01-03 02:12:00,6.6,3.8,30.21,WNW,300,0.0,-999.0,88,0.00,,,0.00,Wunderground v.1.15,2013-01-03 07:12:00,
2013-01-03 02:18:00,6.4,3.6,30.21,WNW,300,0.0,-999.0,88,0.00,,,0.00,Wunderground v.1.15,2013-01-03 07:18:00,
2013-01-03 02:24:00,6.2,3.4,30.21,WNW,300,0.0,-999.0,88,0.00,,,0.00,Wunderground v.1.15,2013-01-03 07:24:00,
2013-01-03 02:30:00,6.0,3.2,30.21,WNW,300,0.0,-999.0,88,0.00,,,0.00,Wunderground v.1.15,2013-01-03 07:30:00,
2013-01-03 02:36:00,5.9,3.1,30.21,WNW,300,0.0,-999.0,88,0.00,,,0.00,Wunderground v.1.15,2013-01-03 07:36:00,
2013-01-03 02:42:00,5.8,3.0,30.21,WNW,300,0.0,-999.0,88,0.00,,,0.00,Wunderground v.1.15,2013-01-03 07:42:00,
2013-01-03 02:48:00,5.7,2.9,30.21,WNW,300,0.0,-999.0,88,0.00,,,0.00,Wunderground v.1.15,2013-01-03 07:48:00,
2013-01-03 02:54:00,5.6,2.8,30.21,WNW,300,0.0,-999.0,88,0.00,,,0.00,Wunderground v.1.15,2013-01-03 07:54:00,
2013-01-03 03:00:00,5.5,2.7,30.21,WNW,300,0.0,-999.0,88,0.00,,,0.00,Wunderground v.1.15,2013-01-03 08:00:00,
2013-01-03 03:06:00,5.4,2.6,30.21,WNW,300,0.0,-999.0,88,0.00,,,0.00,Wunderground v.1.15,2013-01-03 08:06:00,
2013-01-03 03:11:00,5.3,2.5,30.21,WNW,300,0.0,-999.0,88,0.00,,,0.00,Wunderground v.1.15,2013-01-03 08:11:00,
2013-01-03 03:18:00,5.1,2.3,30.21,WNW,300,0.0,-999.0,88,0.00,,,0.00,Wunderground v.1.15,2013-01-03 08:18:00,
2013-01-03 03:24:00,5.0,2.2,30.21,WNW,300,0.0,-999.0,88,0.00,,,0.00,Wunderground v.1.15,2013-01-03 08:24:00,
2013-01-03 03:29:00,4.8,2.0,30.21,WNW,300,0.0,-999.0,88,0.00,,,0.00,Wunderground v.1.15,2013-01-03 08:29:00,
2013-01-03 03:35:00,4.7,1.9,30.21,WNW,300,0.0,-999.0,88,0.00,,,0.00,Wunderground v.1.15,2013-01-03 08:35:00,
2013-01-03 03:41:00,4.6,1.8,30.20,WNW,300,0.0,-999.0,88,0.00,,,0.00,Wunderground v.1.15,2013-01-03 08:41:00,
2013-01-03 03:47:00,4.4,1.6,30.21,WNW,300,0.0,-999.0,88,0.00,,,0.00,Wunderground v.1.15,2013-01-03 08:47:00,
2013-01-03 03:53:00,4.4,1.6,30.20,WNW,300,0.0,-999.0,88,0.00,,,0.00,Wunderground v.1.15,2013-01-03 08:53:00,
2013-01-03 03:59:00,4.4,1.6,30.20,WNW,300,0.0,-999.0,88,0.00,,,0.00,Wunderground v.1.15,2013-01-03 08:59:00,
2013-01-03 04:05:00,4.4,1.6,30.20,WNW,300,0.0,-999.0,88,0.00,,,0.00,Wunderground v.1.15,2013-01-03 09:05:00,
2013-01-03 04:10:00,4.4,1.6,30.20,WNW,300,0.0,-999.0,88,0.00,,,0.00,Wunderground v.1.15,2013-01-03 09:10:00,
2013-01-03 04:16:00,4.3,1.5,30.20,WNW,300,0.0,-999.0,88,0.00,,,0.00,Wunderground v.1.15,2013-01-03 09:16:00,
2013-01-03 04:22:00,4.3,1.5,30.20,WNW,300,0.0,-999.0,88,0.00,,,0.00,Wunderground v.1.15,2013-01-03 09:22:00,
2013-01-03 04:28:00,4.2,1.4,30.20,WNW,300,0.0,-999.0,88,0.00,,,0.00,Wunderground v.1.15,2013-01-03 09:28:00,
2013-01-03 04:34:00,4.3,1.5,30.20,WNW,300,0.0,-999.0,88,0.00,,,0.00,Wunderground v.1.15,2013-01-03 09:34:00,
2013-01-03 04:40:00,4.2,1.4,30.21,WNW,300,0.0,-999.0,88,0.00,,,0.00,Wunderground v.1.15,2013-01-03 09:40:00,
2013-01-03 04:46:00,4.1,1.3,30.20,WNW,300,0.0,-999.0,88,0.00,,,0.00,Wunderground v.1.15,2013-01-03 09:46:00,
2013-01-03 04:52:00,3.9,1.1,30.20,WNW,300,0.0,-999.0,88,0.00,,,0.00,Wunderground v.1.15,2013-01-03 09:52:00,
2013-01-03 04:57:00,3.8,1.0,30.19,WNW,300,0.0,-999.0,88,0.00,,,0.00,Wunderground v.1.15,2013-01-03 09:57:00,
2013-01-03 05:03:00,3.7,0.9,30.20,WNW,300,0.0,-999.0,88,0.00,,,0.00,Wunderground v.1.15,2013-01-03 10:03:00,
2013-01-03 05:09:00,3.7,0.9,30.20,WNW,300,0.0,-999.0,88,0.00,,,0.00,Wunderground v.1.15,2013-01-03 10:09:00,
2013-01-03 05:15:00,3.6,0.6,30.20,WNW,300,0.0,-999.0,87,0.00,,,0.00,Wunderground v.1.15,2013-01-03 10:15:00,
2013-01-03 05:20:00,3.5,0.5,30.20,WNW,300,0.0,-999.0,87,0.00,,,0.00,Wunderground v.1.15,2013-01-03 10:20:00,
2013-01-03 05:27:00,3.5,0.7,30.20,WNW,300,0.0,-999.0,88,0.00,,,0.00,Wunderground v.1.15,2013-01-03 10:27:00,
2013-01-03 05:32:00,3.6,0.8,30.20,WNW,300,0.0,-999.0,88,0.00,,,0.00,Wunderground v.1.15,2013-01-03 10:32:00,
2013-01-03 05:37:00,3.7,0.9,30.20,WNW,300,0.0,-999.0,88,0.00,,,0.00,Wunderground v.1.15,2013-01-03 10:37:00,
2013-01-03 05:43:00,3.8,1.0,30.20,WNW,300,0.0,-999.0,88,0.00,,,0.00,Wunderground v.1.15,2013-01-03 10:43:00,
2013-01-03 05:49:00,3.6,0.8,30.20,WNW,300,0.0,-999.0,88,0.00,,,0.00,Wunderground v.1.15,2013-01-03 10:49:00,
2013-01-03 05:54:00,3.6,0.8,30.20,WNW,300,0.0,-999.0,88,0.00,,,0.00,Wunderground v.1.15,2013-01-03 10:54:00,
2013-01-03 06:00:00,3.6,0.8,30.21,WNW,300,0.0,-999.0,88,0.00,,,0.00,Wunderground v.1.15,2013-01-03 11:00:00,
2013-01-03 06:06:00,3.5,0.7,30.21,WNW,300,0.0,-999.0,88,0.00,,,0.00,Wunderground v.1.15,2013-01-03 11:06:00,
2013-01-03 06:12:00,3.3,0.5,30.21,WNW,300,0.0,-999.0,88,0.00,,,0.00,Wunderground v.1.15,2013-01-03 11:12:00,
2013-01-03 06:18:00,3.3,0.5,30.21,WNW,300,0.0,-999.0,88,0.00,,,0.00,Wunderground v.1.15,2013-01-03 11:18:00,
2013-01-03 06:23:00,3.3,0.5,30.21,WNW,300,0.0,-999.0,88,0.00,,,0.00,Wunderground v.1.15,2013-01-03 11:23:00,
2013-01-03 06:30:00,3.3,0.5,30.22,WNW,300,0.0,-999.0,88,0.00,,,0.00,Wunderground v.1.15,2013-01-03 11:30:00,
2013-01-03 06:36:00,3.3,0.5,30.22,WNW,300,0.0,-999.0,88,0.00,,,0.00,Wunderground v.1.15,2013-01-03 11:36:00,
2013-01-03 06:42:00,3.3,0.5,30.22,WNW,300,0.0,-999.0,88,0.00,,,0.00,Wunderground v.1.15,2013-01-03 11:42:00,
2013-01-03 06:47:00,3.3,0.5,30.21,WNW,300,0.0,-999.0,88,0.00,,,0.00,Wunderground v.1.15,2013-01-03 11:47:00,
2013-01-03 06:53:00,3.2,0.4,30.21,WNW,300,0.0,-999.0,88,0.00,,,0.00,Wunderground v.1.15,2013-01-03 11:53:00,
2013-01-03 06:59:00,3.1,0.3,30.21,WNW,300,0.0,-999.0,88,0.00,,,0.00,Wunderground v.1.15,2013-01-03 11:59:00,
2013-01-03 07:05:00,3.0,0.0,30.22,WNW,300,0.0,-999.0,87,0.00,,,0.00,Wunderground v.1.15,2013-01-03 12:05:00,
2013-01-03 07:11:00,2.8,-0.2,30.22,WNW,300,0.0,-999.0,87,0.00,,,0.00,Wunderground v.1.15,2013-01-03 12:11:00,
2013-01-03 07:16:00,2.8,-0.2,30.22,WNW,300,0.0,-999.0,87,0.00,,,0.00,Wunderground v.1.15,2013-01-03 12:16:00,
2013-01-03 07:22:00,2.8,-0.2,30.22,WNW,300,0.0,-999.0,87,0.00,,,0.00,Wunderground v.1.15,2013-01-03 12:22:00,
2013-01-03 07:28:00,2.9,0.2,30.22,WNW,300,0.0,-999.0,88,0.00,,,0.00,Wunderground v.1.15,2013-01-03 12:28:00,
2013-01-03 07:34:00,3.0,0.3,30.22,WNW,300,0.0,-999.0,88,0.00,,,0.00,Wunderground v.1.15,2013-01-03 12:34:00,
2013-01-03 07:40:00,3.0,0.3,30.21,WNW,300,0.0,-999.0,88,0.00,,,0.00,Wunderground v.1.15,2013-01-03 12:40:00,
2013-01-03 07:46:00,2.7,-0.3,30.21,WNW,300,0.0,-999.0,87,0.00,,,0.00,Wunderground v.1.15,2013-01-03 12:46:00,
2013-01-03 07:52:00,2.6,-0.4,30.22,WNW,300,0.0,-999.0,87,0.00,,,0.00,Wunderground v.1.15,2013-01-03 12:52:00,
2013-01-03 07:58:00,2.6,-0.4,30.22,WNW,300,0.0,-999.0,87,0.00,,,0.00,Wunderground v.1.15,2013-01-03 12:58:00,
2013-01-03 08:04:00,2.6,-0.1,30.22,WNW,300,0.0,-999.0,88,0.00,,,0.00,Wunderground v.1.15,2013-01-03 13:04:00,
2013-01-03 08:09:00,2.8,0.1,30.22,WNW,300,0.0,-999.0,88,0.00,,,0.00,Wunderground v.1.15,2013-01-03 13:09:00,
2013-01-03 08:15:00,3.2,0.4,30.22,WNW,300,0.0,-999.0,88,0.00,,,0.00,Wunderground v.1.15,2013-01-03 13:15:00,
2013-01-03 08:21:00,3.4,0.6,30.22,WNW,300,0.0,-999.0,88,0.00,,,0.00,Wunderground v.1.15,2013-01-03 13:21:00,
2013-01-03 08:27:00,3.7,0.9,30.23,WNW,300,0.0,-999.0,88,0.00,,,0.00,Wunderground v.1.15,2013-01-03 13:27:00,
2013-01-03 08:33:00,4.2,1.7,30.22,WNW,300,0.0,-999.0,89,0.00,,,0.00,Wunderground v.1.15,2013-01-03 13:33:00,
2013-01-03 08:39:00,4.6,2.1,30.22,WNW,300,0.0,-999.0,89,0.00,,,0.00,Wunderground v.1.15,2013-01-03 13:39:00,
2013-01-03 08:45:00,5.1,5.1,30.22,WNW,300,0.0,-999.0,100,0.00,,,0.00,Wunderground v.1.15,2013-01-03 13:45:00,
2013-01-03 08:50:00,6.0,3.7,30.22,WNW,300,0.0,-999.0,90,0.00,,,0.00,Wunderground v.1.15,2013-01-03 13:50:00,
2013-01-03 08:56:00,7.3,5.0,30.22,WNW,300,0.0,-999.0,90,0.00,,,0.00,Wunderground v.1.15,2013-01-03 13:56:00,
2013-01-03 09:02:00,8.1,5.8,30.21,WNW,300,0.0,-999.0,90,0.00,,,0.00,Wunderground v.1.15,2013-01-03 14:02:00,
2013-01-03 09:08:00,8.1,5.5,30.21,WNW,300,0.0,-999.0,89,0.00,,,0.00,Wunderground v.1.15,2013-01-03 14:08:00,
2013-01-03 09:14:00,8.7,6.1,30.21,WNW,300,0.0,-999.0,89,0.00,,,0.00,Wunderground v.1.15,2013-01-03 14:14:00,
2013-01-03 09:20:00,9.7,7.4,30.21,WNW,300,0.0,-999.0,90,0.00,,,0.00,Wunderground v.1.15,2013-01-03 14:20:00,
2013-01-03 09:25:00,10.7,8.6,30.21,WNW,300,0.0,-999.0,91,0.00,,,0.00,Wunderground v.1.15,2013-01-03 14:25:00,
2013-01-03 09:31:00,11.4,9.0,30.21,WNW,300,0.0,-999.0,90,0.00,,,0.00,Wunderground v.1.15,2013-01-03 14:31:00,
2013-01-03 09:37:00,11.9,9.3,30.21,WNW,300,0.0,-999.0,89,0.00,,,0.00,Wunderground v.1.15,2013-01-03 14:37:00,
2013-01-03 09:43:00,12.4,9.5,30.21,WNW,300,0.0,-999.0,88,0.00,,,0.00,Wunderground v.1.15,2013-01-03 14:43:00,
2013-01-03 09:49:00,12.3,9.2,30.21,WNW,300,1.0,-999.0,87,0.00,,,0.00,Wunderground v.1.15,2013-01-03 14:49:00,
2013-01-03 09:54:00,13.0,10.1,30.21,WNW,300,1.0,-999.0,88,0.00,,,0.00,Wunderground v.1.15,2013-01-03 14:54:00,
2013-01-03 10:00:00,14.1,10.9,30.21,WNW,300,1.0,-999.0,87,0.00,,,0.00,Wunderground v.1.15,2013-01-03 15:00:00,
2013-01-03 10:06:00,14.9,11.5,30.21,WNW,300,1.0,-999.0,86,0.00,,,0.00,Wunderground v.1.15,2013-01-03 15:06:00,
2013-01-03 10:12:00,15.9,12.5,30.21,South,185,1.0,-999.0,86,0.00,,,0.00,Wunderground v.1.15,2013-01-03 15:12:00,
2013-01-03 10:18:00,16.7,12.7,30.20,South,172,3.0,-999.0,84,0.00,,,0.00,Wunderground v.1.15,2013-01-03 15:18:00,
2013-01-03 10:24:00,17.4,13.4,30.20,South,172,4.0,-999.0,84,0.00,,,0.00,Wunderground v.1.15,2013-01-03 15:24:00,
2013-01-03 10:30:00,18.2,13.9,30.21,South,172,3.0,-999.0,83,0.00,,,0.00,Wunderground v.1.15,2013-01-03 15:30:00,
2013-01-03 10:36:00,19.0,14.4,30.21,South,172,2.0,-999.0,82,0.00,,,0.00,Wunderground v.1.15,2013-01-03 15:36:00,
2013-01-03 10:41:00,19.9,14.7,30.21,South,172,2.0,-999.0,80,0.00,,,0.00,Wunderground v.1.15,2013-01-03 15:41:00,
2013-01-03 10:47:00,20.4,14.6,30.20,South,171,2.0,-999.0,78,0.00,,,0.00,Wunderground v.1.15,2013-01-03 15:47:00,
2013-01-03 10:53:00,21.1,15.3,30.19,South,171,2.0,-999.0,78,0.00,,,0.00,Wunderground v.1.15,2013-01-03 15:53:00,
2013-01-03 10:59:00,22.0,15.6,30.19,South,171,1.0,-999.0,76,0.00,,,0.00,Wunderground v.1.15,2013-01-03 15:59:00,
2013-01-03 11:05:00,22.9,15.5,30.19,SSW,205,3.0,-999.0,73,0.00,,,0.00,Wunderground v.1.15,2013-01-03 16:05:00,
2013-01-03 11:11:00,23.7,15.7,30.19,WSW,245,4.0,-999.0,71,0.00,,,0.00,Wunderground v.1.15,2013-01-03 16:11:00,
2013-01-03 11:16:00,24.1,15.4,30.19,South,190,4.0,-999.0,69,0.00,,,0.00,Wunderground v.1.15,2013-01-03 16:16:00,
2013-01-03 11:22:00,24.5,16.1,30.18,SSW,213,4.0,-999.0,70,0.00,,,0.00,Wunderground v.1.15,2013-01-03 16:22:00,
2013-01-03 11:28:00,24.9,16.2,30.19,SW,214,5.0,-999.0,69,0.00,,,0.00,Wunderground v.1.15,2013-01-03 16:28:00,
2013-01-03 11:34:00,25.1,16.4,30.18,SSW,211,6.0,-999.0,69,0.00,,,0.00,Wunderground v.1.15,2013-01-03 16:34:00,
2013-01-03 11:40:00,25.2,16.1,30.18,SW,216,6.0,-999.0,68,0.00,,,0.00,Wunderground v.1.15,2013-01-03 16:40:00,
2013-01-03 11:46:00,25.3,16.2,30.18,South,188,5.0,-999.0,68,0.00,,,0.00,Wunderground v.1.15,2013-01-03 16:46:00,
2013-01-03 11:52:00,25.2,16.1,30.18,SSW,211,4.0,-999.0,68,0.00,,,0.00,Wunderground v.1.15,2013-01-03 16:52:00,
2013-01-03 11:58:00,25.6,16.5,30.18,SW,229,3.0,-999.0,68,0.00,,,0.00,Wunderground v.1.15,2013-01-03 16:58:00,
2013-01-03 12:04:00,26.2,16.7,30.18,West,266,3.0,-999.0,67,0.00,,,0.00,Wunderground v.1.15,2013-01-03 17:04:00,
2013-01-03 12:09:00,26.6,16.8,30.18,WNW,290,4.0,-999.0,66,0.00,,,0.00,Wunderground v.1.15,2013-01-03 17:09:00,
2013-01-03 12:15:00,26.8,17.0,30.17,SW,228,5.0,-999.0,66,0.00,,,0.00,Wunderground v.1.15,2013-01-03 17:15:00,
2013-01-03 12:21:00,26.9,17.0,30.17,West,268,4.0,-999.0,66,0.00,,,0.00,Wunderground v.1.15,2013-01-03 17:21:00,
2013-01-03 12:26:00,27.0,17.1,30.16,SSW,203,3.0,-999.0,66,0.00,,,0.00,Wunderground v.1.15,2013-01-03 17:26:00,
2013-01-03 12:32:00,27.0,16.8,30.16,WSW,244,3.0,-999.0,65,0.00,,,0.00,Wunderground v.1.15,2013-01-03 17:32:00,
2013-01-03 12:38:00,27.5,17.6,30.15,SW,225,4.0,-999.0,66,0.00,,,0.00,Wunderground v.1.15,2013-01-03 17:38:00,
2013-01-03 12:44:00,27.9,17.6,30.15,SSW,193,5.0,-999.0,65,0.00,,,0.00,Wunderground v.1.15,2013-01-03 17:44:00,
2013-01-03 12:50:00,28.1,17.8,30.15,West,264,5.0,-999.0,65,0.00,,,0.00,Wunderground v.1.15,2013-01-03 17:50:00,
2013-01-03 12:55:00,28.4,18.1,30.15,West,264,4.0,-999.0,65,0.00,,,0.00,Wunderground v.1.15,2013-01-03 17:55:00,
2013-01-03 13:01:00,29.0,18.3,30.15,SW,221,3.0,-999.0,64,0.00,,,0.00,Wunderground v.1.15,2013-01-03 18:01:00,
2013-01-03 13:06:00,29.3,18.3,30.14,WSW,244,4.0,-999.0,63,0.00,,,0.00,Wunderground v.1.15,2013-01-03 18:06:00,
2013-01-03 13:12:00,29.4,18.3,30.14,West,266,5.0,-999.0,63,0.00,,,0.00,Wunderground v.1.15,2013-01-03 18:12:00,
2013-01-03 13:18:00,29.9,18.8,30.15,WSW,251,3.0,-999.0,63,0.00,,,0.00,Wunderground v.1.15,2013-01-03 18:18:00,
2013-01-03 13:24:00,29.9,18.1,30.15,WSW,255,4.0,-999.0,61,0.00,,,0.00,Wunderground v.1.15,2013-01-03 18:24:00,
2013-01-03 13:30:00,30.0,18.5,30.14,WNW,282,5.0,-999.0,62,0.00,,,0.00,Wunderground v.1.15,2013-01-03 18:30:00,
2013-01-03 13:36:00,30.0,18.5,30.14,SW,221,5.0,-999.0,62,0.00,,,0.00,Wunderground v.1.15,2013-01-03 18:36:00,
2013-01-03 13:42:00,30.1,18.6,30.14,WSW,250,5.0,-999.0,62,0.00,,,0.00,Wunderground v.1.15,2013-01-03 18:42:00,
2013-01-03 13:47:00,30.2,18.4,30.14,WSW,244,6.0,-999.0,61,0.00,,,0.00,Wunderground v.1.15,2013-01-03 18:47:00,
2013-01-03 13:53:00,30.4,18.5,30.15,West,281,6.0,-999.0,61,0.00,,,0.00,Wunderground v.1.15,2013-01-03 18:53:00,
2013-01-03 13:58:00,30.6,18.7,30.14,NW,308,5.0,-999.0,61,0.00,,,0.00,Wunderground v.1.15,2013-01-03 18:58:00,
2013-01-03 14:04:00,30.7,18.8,30.14,WSW,246,5.0,-999.0,61,0.00,,,0.00,Wunderground v.1.15,2013-01-03 19:04:00,
2013-01-03 14:10:00,30.9,19.0,30.14,SW,234,5.0,-999.0,61,0.00,,,0.00,Wunderground v.1.15,2013-01-03 19:10:00,
2013-01-03 14:15:00,31.0,19.1,30.14,WSW,239,6.0,-999.0,61,0.00,,,0.00,Wunderground v.1.15,2013-01-03 19:15:00,
2013-01-03 14:52:00,31.9,20.3,30.14,West,273,4.0,-999.0,62,0.00,,,0.00,Wunderground v.1.15,2013-01-03 19:52:00,
2013-01-03 14:57:00,32.0,20.1,30.14,West,261,4.0,-999.0,61,0.00,,,0.00,Wunderground v.1.15,2013-01-03 19:57:00,
2013-01-03 15:03:00,32.0,20.4,30.14,WSW,254,5.0,-999.0,62,0.00,,,0.00,Wunderground v.1.15,2013-01-03 20:03:00,
2013-01-03 15:08:00,31.9,20.3,30.14,WNW,297,6.0,-999.0,62,0.00,,,0.00,Wunderground v.1.15,2013-01-03 20:08:00,
2013-01-03 15:14:00,31.9,20.3,30.14,WNW,302,7.0,-999.0,62,0.00,,,0.00,Wunderground v.1.15,2013-01-03 20:14:00,
2013-01-03 15:20:00,31.9,20.3,30.14,West,273,6.0,-999.0,62,0.00,,,0.00,Wunderground v.1.15,2013-01-03 20:20:00,
2013-01-03 15:26:00,32.0,20.8,30.14,WSW,246,6.0,-999.0,63,0.00,,,0.00,Wunderground v.1.15,2013-01-03 20:26:00,
2013-01-03 15:32:00,32.4,21.2,30.14,NW,316,6.0,-999.0,63,0.00,,,0.00,Wunderground v.1.15,2013-01-03 20:32:00,
2013-01-03 15:37:00,32.1,20.5,30.15,WSW,244,5.0,-999.0,62,0.00,,,0.00,Wunderground v.1.15,2013-01-03 20:37:00,
2013-01-03 15:43:00,31.9,20.7,30.15,WSW,237,6.0,-999.0,63,0.00,,,0.00,Wunderground v.1.15,2013-01-03 20:43:00,
2013-01-03 15:49:00,31.5,20.3,30.15,West,281,6.0,-999.0,63,0.00,,,0.00,Wunderground v.1.15,2013-01-03 20:49:00,
2013-01-03 15:55:00,31.2,20.1,30.15,WSW,255,6.0,-999.0,63,0.00,,,0.00,Wunderground v.1.15,2013-01-03 20:55:00,
2013-01-03 16:01:00,31.1,20.3,30.16,WSW,243,6.0,-999.0,64,0.00,,,0.00,Wunderground v.1.15,2013-01-03 21:01:00,
2013-01-03 16:07:00,30.9,20.1,30.16,West,281,6.0,-999.0,64,0.00,,,0.00,Wunderground v.1.15,2013-01-03 21:07:00,
2013-01-03 16:13:00,30.7,20.0,30.17,NW,307,6.0,-999.0,64,0.00,,,0.00,Wunderground v.1.15,2013-01-03 21:13:00,
2013-01-03 16:19:00,30.6,20.2,30.17,WSW,244,4.0,-999.0,65,0.00,,,0.00,Wunderground v.1.15,2013-01-03 21:19:00,
2013-01-03 16:24:00,30.7,20.3,30.17,WSW,244,5.0,-999.0,65,0.00,,,0.00,Wunderground v.1.15,2013-01-03 21:24:00,
2013-01-03 16:31:00,30.6,20.6,30.17,West,269,5.0,-999.0,66,0.00,,,0.00,Wunderground v.1.15,2013-01-03 21:31:00,
2013-01-03 16:36:00,30.5,20.8,30.17,NW,304,5.0,-999.0,67,0.00,,,0.00,Wunderground v.1.15,2013-01-03 21:36:00,
2013-01-03 16:45:00,30.4,21.1,30.17,WNW,282,5.0,-999.0,68,0.00,,,0.00,Wunderground v.1.15,2013-01-03 21:45:00,
2013-01-03 16:50:00,30.3,21.7,30.17,WNW,292,5.0,-999.0,70,0.00,,,0.00,Wunderground v.1.15,2013-01-03 21:50:00,
2013-01-03 16:55:00,30.2,21.9,30.17,West,276,6.0,-999.0,71,0.00,,,0.00,Wunderground v.1.15,2013-01-03 21:55:00,
2013-01-03 17:01:00,30.1,21.8,30.17,NW,308,7.0,-999.0,71,0.00,,,0.00,Wunderground v.1.15,2013-01-03 22:01:00,
2013-01-03 17:08:00,29.9,22.0,30.18,WNW,284,5.0,-999.0,72,0.00,,,0.00,Wunderground v.1.15,2013-01-03 22:08:00,
2013-01-03 17:13:00,29.9,22.3,30.18,WNW,284,4.0,-999.0,73,0.00,,,0.00,Wunderground v.1.15,2013-01-03 22:13:00,
2013-01-03 17:19:00,29.8,22.2,30.18,WNW,284,4.0,-999.0,73,0.00,,,0.00,Wunderground v.1.15,2013-01-03 22:19:00,
2013-01-03 17:25:00,29.7,22.1,30.18,West,267,3.0,-999.0,73,0.00,,,0.00,Wunderground v.1.15,2013-01-03 22:25:00,
2013-01-03 17:31:00,29.7,22.4,30.18,West,281,4.0,-999.0,74,0.00,,,0.00,Wunderground v.1.15,2013-01-03 22:31:00,
2013-01-03 17:37:00,29.7,22.4,30.18,South,185,3.0,-999.0,74,0.00,,,0.00,Wunderground v.1.15,2013-01-03 22:37:00,
2013-01-03 17:43:00,29.6,22.3,30.19,WSW,237,2.0,-999.0,74,0.00,,,0.00,Wunderground v.1.15,2013-01-03 22:43:00,
2013-01-03 17:48:00,29.6,22.3,30.19,WSW,250,3.0,-999.0,74,0.00,,,0.00,Wunderground v.1.15,2013-01-03 22:48:00,
2013-01-03 17:53:00,29.6,22.3,30.19,West,269,3.0,-999.0,74,0.00,,,0.00,Wunderground v.1.15,2013-01-03 22:53:00,
2013-01-03 17:59:00,29.6,22.3,30.19,WSW,242,3.0,-999.0,74,0.00,,,0.00,Wunderground v.1.15,2013-01-03 22:59:00,
2013-01-03 18:05:00,29.6,22.0,30.19,WSW,239,3.0,-999.0,73,0.00,,,0.00,Wunderground v.1.15,2013-01-03 23:05:00,
2013-01-03 18:11:00,29.5,21.9,30.20,WSW,247,4.0,-999.0,73,0.00,,,0.00,Wunderground v.1.15,2013-01-03 23:11:00,
2013-01-03 18:17:00,29.5,21.9,30.20,SW,232,4.0,-999.0,73,0.00,,,0.00,Wunderground v.1.15,2013-01-03 23:17:00,
2013-01-03 18:23:00,29.5,21.9,30.20,WNW,302,4.0,-999.0,73,0.00,,,0.00,Wunderground v.1.15,2013-01-03 23:23:00,
2013-01-03 18:29:00,29.4,22.1,30.20,SW,236,4.0,-999.0,74,0.00,,,0.00,Wunderground v.1.15,2013-01-03 23:29:00,
2013-01-03 18:35:00,29.4,22.1,30.20,SW,228,4.0,-999.0,74,0.00,,,0.00,Wunderground v.1.15,2013-01-03 23:35:00,
2013-01-03 18:40:00,29.3,22.4,30.20,West,267,4.0,-999.0,75,0.00,,,0.00,Wunderground v.1.15,2013-01-03 23:40:00,
2013-01-03 18:46:00,29.3,22.4,30.20,SW,234,4.0,-999.0,75,0.00,,,0.00,Wunderground v.1.15,2013-01-03 23:46:00,
2013-01-03 18:52:00,29.3,22.4,30.20,WSW,249,4.0,-999.0,75,0.00,,,0.00,Wunderground v.1.15,2013-01-03 23:52:00,
2013-01-03 18:58:00,29.3,22.4,30.20,WNW,298,3.0,-999.0,75,0.00,,,0.00,Wunderground v.1.15,2013-01-03 23:58:00,
2013-01-03 19:04:00,29.2,22.3,30.20,West,272,4.0,-999.0,75,0.00,,,0.00,Wunderground v.1.15,2013-01-04 00:04:00,
2013-01-03 19:09:00,29.2,22.3,30.20,SW,228,5.0,-999.0,75,0.00,,,0.00,Wunderground v.1.15,2013-01-04 00:09:00,
2013-01-03 19:15:00,29.1,22.5,30.20,WSW,243,5.0,-999.0,76,0.00,,,0.00,Wunderground v.1.15,2013-01-04 00:15:00,
2013-01-03 19:21:00,29.0,22.4,30.21,WSW,256,4.0,-999.0,76,0.00,,,0.00,Wunderground v.1.15,2013-01-04 00:21:00,
2013-01-03 19:27:00,29.0,22.4,30.21,WSW,242,4.0,-999.0,76,0.00,,,0.00,Wunderground v.1.15,2013-01-04 00:27:00,
2013-01-03 19:33:00,29.0,22.4,30.21,NW,310,6.0,-999.0,76,0.00,,,0.00,Wunderground v.1.15,2013-01-04 00:33:00,
2013-01-03 19:39:00,28.9,22.6,30.21,WNW,286,5.0,-999.0,77,0.00,,,0.00,Wunderground v.1.15,2013-01-04 00:39:00,
2013-01-03 19:45:00,28.8,22.5,30.21,WNW,294,4.0,-999.0,77,0.00,,,0.00,Wunderground v.1.15,2013-01-04 00:45:00,
2013-01-03 19:50:00,28.8,22.5,30.21,NW,306,5.0,-999.0,77,0.00,,,0.00,Wunderground v.1.15,2013-01-04 00:50:00,
2013-01-03 19:56:00,28.8,22.5,30.21,WNW,284,6.0,-999.0,77,0.00,,,0.00,Wunderground v.1.15,2013-01-04 00:56:00,
2013-01-03 20:02:00,28.7,22.4,30.22,WNW,285,5.0,-999.0,77,0.00,,,0.00,Wunderground v.1.15,2013-01-04 01:02:00,
2013-01-03 20:08:00,28.7,21.8,30.22,NW,306,7.0,-999.0,75,0.00,,,0.00,Wunderground v.1.15,2013-01-04 01:08:00,
2013-01-03 20:14:00,28.8,21.9,30.22,West,276,8.0,-999.0,75,0.00,,,0.00,Wunderground v.1.15,2013-01-04 01:14:00,
2013-01-03 20:20:00,28.7,21.8,30.22,NW,309,7.0,-999.0,75,0.00,,,0.00,Wunderground v.1.15,2013-01-04 01:20:00,
2013-01-03 20:26:00,28.6,21.7,30.21,WNW,285,5.0,-999.0,75,0.00,,,0.00,Wunderground v.1.15,2013-01-04 01:26:00,
2013-01-03 20:31:00,28.6,22.0,30.22,WNW,291,4.0,-999.0,76,0.00,,,0.00,Wunderground v.1.15,2013-01-04 01:31:00,
2013-01-03 20:36:00,28.5,21.9,30.22,West,280,4.0,-999.0,76,0.00,,,0.00,Wunderground v.1.15,2013-01-04 01:36:00,
2013-01-03 20:42:00,28.4,22.1,30.22,West,277,4.0,-999.0,77,0.00,,,0.00,Wunderground v.1.15,2013-01-04 01:42:00,
2013-01-03 20:48:00,28.4,22.1,30.22,WNW,286,4.0,-999.0,77,0.00,,,0.00,Wunderground v.1.15,2013-01-04 01:48:00,
2013-01-03 20:54:00,28.3,22.0,30.22,SSW,213,2.0,-999.0,77,0.00,,,0.00,Wunderground v.1.15,2013-01-04 01:54:00,
2013-01-03 21:00:00,28.3,22.0,30.22,WSW,258,3.0,-999.0,77,0.00,,,0.00,Wunderground v.1.15,2013-01-04 02:00:00,
2013-01-03 21:06:00,28.3,22.0,30.22,WSW,240,3.0,-999.0,77,0.00,,,0.00,Wunderground v.1.15,2013-01-04 02:06:00,
2013-01-03 21:12:00,28.3,22.0,30.22,WSW,242,2.0,-999.0,77,0.00,,,0.00,Wunderground v.1.15,2013-01-04 02:12:00,
2013-01-03 21:17:00,28.3,22.3,30.22,WNW,285,2.0,-999.0,78,0.00,,,0.00,Wunderground v.1.15,2013-01-04 02:17:00,
2013-01-03 21:23:00,28.4,22.4,30.22,West,263,3.0,-999.0,78,0.00,,,0.00,Wunderground v.1.15,2013-01-04 02:23:00,
2013-01-03 21:29:00,28.4,22.4,30.22,SW,233,4.0,-999.0,78,0.00,,,0.00,Wunderground v.1.15,2013-01-04 02:29:00,
2013-01-03 21:35:00,28.4,22.4,30.22,SW,232,3.0,-999.0,78,0.00,,,0.00,Wunderground v.1.15,2013-01-04 02:35:00,
2013-01-03 21:41:00,28.4,22.4,30.22,WSW,255,3.0,-999.0,78,0.00,,,0.00,Wunderground v.1.15,2013-01-04 02:41:00,
2013-01-03 21:47:00,28.4,22.4,30.22,SW,232,5.0,-999.0,78,0.00,,,0.00,Wunderground v.1.15,2013-01-04 02:47:00,
2013-01-03 21:53:00,28.4,22.4,30.22,SW,224,5.0,-999.0,78,0.00,,,0.00,Wunderground v.1.15,2013-01-04 02:53:00,
2013-01-03 21:59:00,28.5,22.5,30.22,West,262,5.0,-999.0,78,0.00,,,0.00,Wunderground v.1.15,2013-01-04 02:59:00,
2013-01-03 22:05:00,28.5,22.5,30.22,WSW,244,5.0,-999.0,78,0.00,,,0.00,Wunderground v.1.15,2013-01-04 03:05:00,
2013-01-03 22:10:00,28.5,22.5,30.22,SW,236,5.0,-999.0,78,0.00,,,0.00,Wunderground v.1.15,2013-01-04 03:10:00,
2013-01-03 22:16:00,28.5,22.5,30.22,WSW,239,5.0,-999.0,78,0.00,,,0.00,Wunderground v.1.15,2013-01-04 03:16:00,
2013-01-03 22:22:00,28.5,22.5,30.22,NW,316,4.0,-999.0,78,0.00,,,0.00,Wunderground v.1.15,2013-01-04 03:22:00,
2013-01-03 22:28:00,28.4,22.4,30.22,WSW,255,4.0,-999.0,78,0.00,,,0.00,Wunderground v.1.15,2013-01-04 03:28:00,
2013-01-03 22:34:00,28.4,22.4,30.22,SW,223,4.0,-999.0,78,0.00,,,0.00,Wunderground v.1.15,2013-01-04 03:34:00,
2013-01-03 22:39:00,28.4,22.4,30.22,West,273,4.0,-999.0,78,0.00,,,0.00,Wunderground v.1.15,2013-01-04 03:39:00,
2013-01-03 22:45:00,28.4,22.4,30.23,West,271,4.0,-999.0,78,0.00,,,0.00,Wunderground v.1.15,2013-01-04 03:45:00,
2013-01-03 22:51:00,28.3,22.3,30.23,WSW,251,4.0,-999.0,78,0.00,,,0.00,Wunderground v.1.15,2013-01-04 03:51:00,
2013-01-03 22:57:00,28.3,22.3,30.22,West,276,3.0,-999.0,78,0.00,,,0.00,Wunderground v.1.15,2013-01-04 03:57:00,
2013-01-03 23:02:00,28.3,22.3,30.23,WNW,283,4.0,-999.0,78,0.00,,,0.00,Wunderground v.1.15,2013-01-04 04:02:00,
2013-01-03 23:08:00,28.3,22.3,30.22,WSW,241,3.0,-999.0,78,0.00,,,0.00,Wunderground v.1.15,2013-01-04 04:08:00,
2013-01-03 23:14:00,28.4,22.1,30.23,West,268,4.0,-999.0,77,0.00,,,0.00,Wunderground v.1.15,2013-01-04 04:14:00,
2013-01-03 23:20:00,28.4,22.1,30.22,West,277,4.0,-999.0,77,0.00,,,0.00,Wunderground v.1.15,2013-01-04 04:20:00,
2013-01-03 23:26:00,28.4,22.1,30.22,WNW,296,4.0,-999.0,77,0.00,,,0.00,Wunderground v.1.15,2013-01-04 04:26:00,
2013-01-03 23:32:00,28.4,22.1,30.22,WNW,288,4.0,-999.0,77,0.00,,,0.00,Wunderground v.1.15,2013-01-04 04:32:00,
2013-01-03 23:38:00,28.5,21.9,30.22,NW,307,4.0,-999.0,76,0.00,,,0.00,Wunderground v.1.15,2013-01-04 04:38:00,
2013-01-03 23:43:00,28.7,21.8,30.22,WNW,284,7.0,-999.0,75,0.00,,,0.00,Wunderground v.1.15,2013-01-04 04:43:00,
2013-01-03 23:49:00,28.8,21.9,30.22,West,281,9.0,-999.0,75,0.00,,,0.00,Wunderground v.1.15,2013-01-04 04:49:00,
2013-01-03 23:55:00,28.7,22.1,30.22,NW,305,7.0,-999.0,76,0.00,,,0.00,Wunderground v.1.15,2013-01-04 04:55:00,